Regional Weather Roundup
Issued by NWS

Home | Current Version | Previous Version | Graphics & Text | Print | Product List | Glossary On
Versions: 1 2 3 4 5 6 7 8 9 10 11 12 13 14 15 16 17 18 19 20 21 22 23 24 25 26 27 28 29 30 31 32 33 34 35 36 37 38 39 40 41 42 43 44 45 46 47 48 49 50
000
ASUS43 KOAX 262010
RWRNE

WEATHER ROUNDUP FOR NEBRASKA
NATIONAL WEATHER SERVICE OMAHA NE
200 PM CST SUN FEB 26 2017

NOTES: SATELLITE DATA IS BEING USED TO AUGMENT CLOUD COVER ABOVE
       12000 FEET.
       "FAIR" INDICATES FEW OR NO CLOUDS BELOW 12,000 FEET WITH NO
       SIGNIFICANT WEATHER AND/OR OBSTRUCTIONS TO VISIBILITY.

  * THESE STATIONS DO NOT REPORT WEATHER SUCH AS RAIN...SNOW OR FOG.

NEZ001>004-019>022-054>056-262100-
NEBRASKA PANHANDLE

CITY           SKY/WX    TMP DP  RH WIND       PRES   REMARKS
SCOTTSBLUFF    SUNNY     32  11  41 W10       29.83F WCI  24
ALLIANCE       SUNNY     25  14  63 W10       29.82F WCI  15
CHADRON        SUNNY     25  10  53 SW8       29.84F WCI  16
KIMBALL        SUNNY     32  15  49 SW8       29.81F WCI  25
SIDNEY         SUNNY     34  13  41 W13G20    29.83F WCI  25
$$

NEZ057>060-069>072-079>082-262100-
SOUTHWEST NEBRASKA

CITY           SKY/WX    TMP DP  RH WIND       PRES   REMARKS
NORTH PLATTE   SUNNY     38  13  35 NW15      29.88F WCI  29
IMPERIAL       SUNNY     39  12  33 N20       29.88F WCI  29
LEXINGTON      SUNNY     40  14  35 W12       29.89F WCI  33
MCCOOK         SUNNY     44   6  21 NW23      29.89F
OGALLALA       SUNNY     36  15  42 NW16G24   29.88S WCI  26
$$

NEZ005>010-023>029-035>040-094-262100-
NORTH CENTRAL NEBRASKA

CITY           SKY/WX    TMP DP  RH WIND       PRES   REMARKS
VALENTINE      SUNNY     31  16  54 W9        29.84F WCI  23
AINSWORTH      SUNNY     33  20  59 W10       29.85S WCI  24
BROKEN BOW     SUNNY     36  21  54 W6        29.88F WCI  31
O`NEILL        SUNNY     35  20  53 SW7       29.89S WCI  29
ORD            SUNNY     37  16  42 W7        29.88F WCI  32
THEDFORD       SUNNY     32  16  51 W8        29.87S WCI  25
$$

NEZ041-046>049-061>064-073>077-083>087-262100-
SOUTH CENTRAL NEBRASKA

CITY           SKY/WX    TMP DP  RH WIND       PRES   REMARKS
GRAND ISLAND   SUNNY     43  20  39 W7        29.91F
AURORA         SUNNY     42  20  41 W6        29.91F
HASTINGS       SUNNY     44  12  27 W13       29.91F
HEBRON         SUNNY     47  15  27 W10       29.91F
HOLDREGE       SUNNY     43   9  24 W12G18    29.89F
KEARNEY *      SUNNY     41  12  30 NW9       29.90F
YORK           SUNNY     39  25  56 CALM      29.92F
$$

NEZ011>018-030>034-042>045-262100-
NORTHEAST NEBRASKA

CITY           SKY/WX    TMP DP  RH WIND       PRES   REMARKS
NORFOLK        SUNNY     34  20  56 S9        29.90F WCI  27
ALBION         SUNNY     38  21  50 W3        29.91S
BLAIR          SUNNY     38  23  54 W5        29.93S WCI  35
FREMONT        SUNNY     39  25  57 NW5       29.94S
TEKAMAH        SUNNY     34  23  64 SW6       29.94F WCI  29
WAYNE          SUNNY     35  24  63 NW5       29.91S WCI  31
$$

NEZ050>053-065>068-078-088>093-262100-
SOUTHEAST NEBRASKA

CITY           SKY/WX    TMP DP  RH WIND       PRES   REMARKS
LINCOLN        SUNNY     43  22  43 SW8       29.95F
OMAHA EPPLEY   MOSUNNY   43  22  43 NW7       29.94F
BEATRICE       SUNNY     50  16  26 W13G22    29.91F
FALLS CITY     MOSUNNY   52  23  32 W14G22    29.91F
NEBRASKA CITY  MOSUNNY   48  15  26 W13G22    29.92F
PLATTSMOUTH    SUNNY     44  18  35 W10G17    29.94S
$$

NEZ044-045-051>053-067-262100-
OMAHA AREA

CITY           SKY/WX    TMP DP  RH WIND       PRES   REMARKS
OMAHA EPPLEY   MOSUNNY   43  22  43 NW7       29.94F
BLAIR          SUNNY     38  23  54 W5        29.93S WCI  35
FREMONT        SUNNY     39  25  57 NW5       29.94S
MILLARD        SUNNY     42  23  47 W5        29.94F
OFFUTT AFB     SUNNY     43  21  41 W5        29.94F
PLATTSMOUTH    SUNNY     44  18  35 W10G17    29.94S
WAHOO          FAIR      40  24  52 W3        29.94F
$$




USA.gov is the U.S. government's official web portal to all federal, state and local government web resources and services.